[Date Prev][Date Next][Thread Prev][Thread Next] - [Date Index][Thread Index][Author Index]
2 Line ISS Keps 4-3
- Subject: [sarex] 2 Line ISS Keps 4-3
- From: "Dave Larsen PhD" <doc@xxxxxxxxxxx>
- Date: Sun, 3 Apr 2005 03:10:12 -0700
ISS
1 25544U 98067A 05093.33304398 .00017500 00000-0 14343-3 0 1577
2 25544 051.6454 283.9734 0005816 326.4587 034.0637 15.70585970363910
----
Via the sarex mailing list at AMSAT.ORG courtesy of AMSAT-NA.
To unsubscribe, send "unsubscribe sarex" to Majordomo@amsat.org
AMSAT Home